CUTE-1 (CO-55)

Last updated on Sun Jul 26 2026 00:03:19 GMT+0000 (Coordinated Universal Time)

1 27844U 03031E 26205.97080695 .00000297 00000+0 14722-3 0 9997 2 27844 98.6748 214.0560 0010827 77.5978 282.6412 14.24356508197053
UTC large
Height (km)
Speed (km/s)
/
Latitude / Longitude
Inclination (degrees)
Orbital Period (minutes)
Azimuth
Elevation
Range (km)
Doppler Factor

Next 0 passes for location: London (51.5072 / 0.1276)

No passes found over London.
CUTE-1 (CO-55)